Regional Weather Roundup
Issued by NWS

Home | Current Version | Previous Version | Text Only | Print | Product List | Glossary On
Versions: 1 2 3 4 5 6 7 8 9 10 11 12 13 14 15 16 17 18 19 20 21 22 23 24 25 26 27 28 29 30 31 32 33 34 35 36 37 38 39 40 41 42 43 44 45 46 47 48 49 50
000
ASUS44 KFWD 261801
RWRTX
NORTH TEXAS HOURLY WEATHER ROUNDUP
NATIONAL WEATHER SERVICE FORT WORTH TX
100 PM CDT THU APR 26 2018

NOTE: "FAIR" INDICATES FEW OR NO CLOUDS BELOW 12,000 FEET WITH NO
SIGNIFICANT WEATHER AND/OR OBSTRUCTIONS TO VISIBILITY.

TXZ118-119-261900-
DALLAS/FORT WORTH METROPLEX

CITY           SKY/WX    TMP DP  RH WIND       PRES   REMARKS
DFW AIRPORT    FAIR      66  44  45 N5        30.01F
6HR MIN TEMP:  48; 6HR MAX TEMP:  66;

DALLAS LOVE    FAIR      66  45  46 NW9       30.02F
6HR MIN TEMP:  48; 6HR MAX TEMP:  67;

FTW MEACHAM    FAIR      68  47  46 VRB5      30.02F
6HR MIN TEMP:  46; 6HR MAX TEMP:  69;

DAL-EXECUTIVE  FAIR      68  44  42 VRB6G18   30.02
6HR MIN TEMP:  47; 6HR MAX TEMP:  68;

FTW-ALLIANCE   FAIR      69  47  45 VRB6      30.02F
6HR MIN TEMP:  44; 6HR MAX TEMP:  69;

FTW-NAS-JRB    FAIR      67  43  41 NW9       30.03F
6HR MIN TEMP:  46; 6HR MAX TEMP:  68;

FTW-SPINKS     SUNNY     68  46  45 NW5       30.04F
ARLINGTON      FAIR      66  44  45 NE6       30.02F
6HR MIN TEMP:  43; 6HR MAX TEMP:  66;

GRAND PRAIRIE  SUNNY     66  43  42 N8        30.04F
ADDISON        SUNNY     64  45  48 N9        30.03F
MESQUITE       SUNNY     64  45  48 NW6       30.03F
LANCASTER      FAIR      65  47  51 NW8       30.03F
6HR MIN TEMP:  44; 6HR MAX TEMP:  65;

$$

TXZ091>094-102>105-117-120-121-131>134-261900-
NORTH CENTRAL TEXAS

CITY           SKY/WX    TMP DP  RH WIND       PRES   REMARKS
SHRMAN/DENISON FAIR      63  47  55 CALM      30.03F
6HR MIN TEMP:  44; 6HR MAX TEMP:  63;

GAINESVILLE    FAIR      64  43  46 N7        30.04F
6HR MIN TEMP:  42; 6HR MAX TEMP:  64;

BOWIE          FAIR      65  44  45 CALM      30.02F
6HR MIN TEMP:  40; 6HR MAX TEMP:  65;

BRIDGEPORT     FAIR      66  43  43 NW3       30.04F
6HR MIN TEMP:  41; 6HR MAX TEMP:  66;

DECATUR        FAIR      66  45  46 CALM      30.02F
6HR MIN TEMP:  43; 6HR MAX TEMP:  66;

DENTON         FAIR      67  46  47 N7        30.02F
6HR MIN TEMP:  41; 6HR MAX TEMP:  67;

MCKINNEY       FAIR      64  47  53 N7        30.02F
6HR MIN TEMP:  43; 6HR MAX TEMP:  65;

BONHAM         FAIR      62  47  56 N7        30.02F
6HR MIN TEMP:  45; 6HR MAX TEMP:  63;

ROCKWALL       FAIR      64  47  54 MISG      30.03F
6HR MIN TEMP:  46; 6HR MAX TEMP:  64;

TERRELL        FAIR      65  46  50 N7        30.02F
6HR MIN TEMP:  44; 6HR MAX TEMP:  65;

WAXAHACHIE     FAIR      66  47  49 NW6       30.03F
6HR MIN TEMP:  45; 6HR MAX TEMP:  66;

CLEBURNE       FAIR      68  43  40 VRB3G14   30.04F
GRANBURY       FAIR      70  45  40 N7        30.04F
6HR MIN TEMP:  40; 6HR MAX TEMP:  70;

$$

TXZ083>090-098>101-113>116-127>130-139>142-154-155-261900-
WESTERN NORTH TEXAS

CITY           SKY/WX    TMP DP  RH WIND       PRES   REMARKS
WICHITA FALLS  FAIR      68  44  42 E3        30.01F
6HR MIN TEMP:  41; 6HR MAX TEMP:  68;

WF-KICKAPOO    FAIR      67  47  47 S5        30.04F
6HR MIN TEMP:  44; 6HR MAX TEMP:  67;

VERNON         FAIR      71  41  33 SW9       30.01S
6HR MIN TEMP:  42; 6HR MAX TEMP:  71;

ABILENE        FAIR      69  44  40 SW9       30.02F
6HR MIN TEMP:  38; 6HR MAX TEMP:  70;

BRECKENRIDGE   FAIR      72  43  34 SW5       30.02F HAZE
6HR MIN TEMP:  40; 6HR MAX TEMP:  72;

CISCO          FAIR      68  43  40 CALM      30.04F
EASTLAND       FAIR      68  45  44 CALM      30.03F
6HR MIN TEMP:  34; 6HR MAX TEMP:  69;

RANGER         FAIR      68  45  44 N3        30.03F
6HR MIN TEMP:  40; 6HR MAX TEMP:  69;

MINERAL WELLS  FAIR      67  46  47 VRB3      30.01F
6HR MIN TEMP:  44; 6HR MAX TEMP:  68;

STEPHENVILLE   FAIR      69  41  36 CALM      30.05F
6HR MIN TEMP:  40; 6HR MAX TEMP:  70;

COMANCHE       FAIR      69  43  38 E3        30.04F
6HR MIN TEMP:  43; 6HR MAX TEMP:  69;

COLEMAN        FAIR      71  42  36 SW6       30.04F
6HR MIN TEMP:  38; 6HR MAX TEMP:  71;

BRADY          FAIR      70  34  26 S5G12     30.04F
$$

TXZ143>147-156>162-174-175-261900-
CENTRAL TEXAS

CITY           SKY/WX    TMP DP  RH WIND       PRES   REMARKS
WACO           FAIR     N/A N/A N/A VRB5      30.03F
6HR MIN TEMP:  39; 6HR MAX TEMP:  71;

WACO-TSTC      SUNNY     70  45  40 NW8       30.03F
WACO-MCGREGOR  FAIR      70  43  37 N8        30.03F
6HR MIN TEMP:  40; 6HR MAX TEMP:  70;

HILLSBORO      FAIR      67  47  48 N8        30.03F
CORSICANA      FAIR      65  47  52 N10G20    30.04F
6HR MIN TEMP:  44; 6HR MAX TEMP:  66;

MEXIA          FAIR      66  45  47 NW14      30.04F
6HR MIN TEMP:  45; 6HR MAX TEMP:  66;

HEARNE         FAIR      67  46  46 N3        30.05F
6HR MIN TEMP:  43; 6HR MAX TEMP:  68;

CAMERON        FAIR      68  45  44 N7        30.05F
6HR MIN TEMP:  46; 6HR MAX TEMP:  68;

TEMPLE         FAIR      70  46  42 NW12      30.05F
6HR MIN TEMP:  43; 6HR MAX TEMP:  70;

KILLEEN        NOT AVBL
KILLEEN-SKYLRK FAIR      70  44  39 VRB5      30.04F
6HR MIN TEMP:  44; 6HR MAX TEMP:  70;

GATESVILLE     FAIR      70  43  37 VRB3G12   30.05F
HAMILTON       FAIR      70  43  38 N5        30.04F
6HR MIN TEMP:  41; 6HR MAX TEMP:  70;

LAMPASAS       FAIR      68  42  39 NE3       30.03F
6HR MIN TEMP:  42; 6HR MAX TEMP:  69;

$$

TXZ095>097-106>112-122>126-135>138-148>153-164>167-261900-
EAST TEXAS

CITY           SKY/WX    TMP DP  RH WIND       PRES   REMARKS
PARIS          FAIR      62  50  64 VRB7      30.02F
6HR MIN TEMP:  45; 6HR MAX TEMP:  62;

SULPHUR SPRNGS FAIR      63  49  59 N8        30.04F
6HR MIN TEMP:  48; 6HR MAX TEMP:  63;

MOUNT PLEASANT FAIR      62  50  63 N8        30.02F
6HR MIN TEMP:  47; 6HR MAX TEMP:  63;

GILMER         FAIR      62  50  65 N7        30.01F
6HR MIN TEMP:  45; 6HR MAX TEMP:  62;

MINEOLA        FAIR      63  48  59 N9        30.02F
TYLER          FAIR      65  46  50 N13G18    30.01F
6HR MIN TEMP:  46; 6HR MAX TEMP:  66;

LONGVIEW       PTSUNNY   64  50  60 VRB7      30.00F
6HR MIN TEMP:  47; 6HR MAX TEMP:  64;

MARSHALL       FAIR      61  46  59 NW5       30.02F
6HR MIN TEMP:  46; 6HR MAX TEMP:  61;

ATHENS         FAIR      64  45  48 NW12      30.01F
PALESTINE      FAIR      66  49  54 NW10G16   30.04F
JACKSONVILLE   FAIR      64  49  57 NW6       30.03F
HENDERSON      FAIR      63  48  58 N7G16     30.02S
6HR MIN TEMP:  45; 6HR MAX TEMP:  64;

CENTER         FAIR      64  44  47 NW8G16    30.00F
6HR MIN TEMP:  47; 6HR MAX TEMP:  65;

NACOGDOCHES      N/A     66  48  52 N10G18    30.01F
6HR MIN TEMP:  46; 6HR MAX TEMP:  66;

LUFKIN         FAIR      66  48  52 VRB6      30.01F
6HR MIN TEMP:  47; 6HR MAX TEMP:  67;

$$

SUPPLEMENTAL OBSERVATIONS (NWS FORT WORTH AREA)

CITY           SKY/WX    TMP DP  RH WIND       PRES   REMARKS
$$

SUPPLEMENTAL OBSERVATIONS (NWS NORMAN AREA)

CITY           SKY/WX    TMP DP  RH WIND       PRES   REMARKS
GOODLETT         N/A     74  35  24 S5        29.99S
ODELL            N/A     71  41  34 SW2       30.02F
CROWELL          N/A     73  41  31 S10       30.00F
KNOX CITY        N/A     74  37  25 SW7G15    30.00F
SEYMOUR          N/A     71  45  39 SW6       30.01F
$$

SUPPLEMENTAL OBSERVATIONS (NWS SAN ANGELO AREA)

CITY           SKY/WX    TMP DP  R



USA.gov is the U.S. government's official web portal to all federal, state and local government web resources and services.